This is the latest recevied weather packets stored in our database for station/object KI4BSX. If no packets are shown the sender has not sent any weather packets the latest 10 day(s).
| Time | Temp. | Humidity | Pressure | Rain* | Wind** | Luminosity | Snow |
|---|---|---|---|---|---|---|---|
| 1777859503 | 11.11° C | 72% | 1019.5 hPa | 0 mm | - | - | - |
| 1777859199 | 11.67° C | 71% | 1019.3 hPa | 0 mm | - | - | - |
| 1777858896 | 11.67° C | 70% | 1019.4 hPa | 0 mm | - | - | - |
| 1777858594 | 11.67° C | 69% | 1019.3 hPa | 0 mm | - | - | - |
| 1777858291 | 12.22° C | 68% | 1019 hPa | 0 mm | - | - | - |
| 1777857988 | 12.22° C | 67% | 1019.2 hPa | 0 mm | - | - | - |
| 1777857686 | 12.78° C | 67% | 1019.1 hPa | 0 mm | - | - | - |
| 1777857382 | 12.78° C | 66% | 1019.2 hPa | 0 mm | - | - | - |
| 1777857079 | 13.33° C | 66% | 1019.1 hPa | 0 mm | - | - | - |
| 1777856775 | 13.33° C | 65% | 1018.9 hPa | 0 mm | - | - | - |
| 1777856471 | 13.33° C | 63% | 1019 hPa | 0 mm | - | - | - |
| 1777856168 | 13.89° C | 62% | 1018.8 hPa | 0 mm | - | - | - |
| 1777855865 | 13.89° C | 61% | 1018.7 hPa | 0 mm | - | - | - |
| 1777855563 | 14.44° C | 60% | 1018.9 hPa | 0 mm | - | - | - |
| 1777855260 | 14.44° C | 58% | 1018.8 hPa | 0 mm | - | - | - |
| 1777854955 | 14.44° C | 58% | 1018.8 hPa | 0 mm | - | - | - |
| 1777854652 | 15° C | 57% | 1019 hPa | 0 mm | - | - | - |
| 1777854349 | 15.56° C | 56% | 1018.6 hPa | 0 mm | - | - | - |
| 1777854047 | 15.56° C | 55% | 1018.5 hPa | 0 mm | - | - | - |
| 1777853744 | 15.56° C | 53% | 1018.6 hPa | 0 mm | - | - | - |
| 1777853440 | 16.11° C | 52% | 1018.4 hPa | 0 mm | - | - | - |
| 1777853138 | 16.67° C | 51% | 1018.6 hPa | 0 mm | - | - | - |
| 1777852835 | 16.67° C | 49% | 1018.6 hPa | 0 mm | - | - | - |
| 1777852533 | 17.22° C | 48% | 1018.4 hPa | 0 mm | - | - | - |
| 1777852230 | 17.78° C | 47% | 1018.5 hPa | 0 mm | - | - | - |
* Rain latest hour (hover to see other rain measurements)
** Current wind speed in m/s (hover to see current wind gust speed)